CW3999 Weather Reports


Display with metric or nautical units.
time (UTC)temp
F
wind
direction
speed
MPH
gust
MPH
rain 1hr
in
rain 24hr
in
rain mn
in
humidity
%
barometer
mb
20260508182642 59 302 0.0 0.0 0.00 0.00 0.00 55 1020.5
20260508182129 59 302 0.0 0.0 0.00 0.00 0.00 54 1020.5
20260508181631 58 302 0.0 0.0 0.00 0.00 0.00 54 1020.4
20260508181131 58 302 0.0 0.0 0.00 0.00 0.00 51 1020.4
20260508180630 57 302 0.0 0.0 0.00 0.00 0.00 55 1020.4
20260508180130 57 302 0.0 0.0 0.00 0.00 0.00 52 1020.4
20260508175630 57 302 0.0 0.0 0.00 0.00 0.00 51 1020.4
20260508175118 57 302 0.0 0.0 0.00 0.00 0.00 51 1020.3
20260508174619 57 302 0.0 0.0 0.00 0.00 0.00 53 1020.3
20260508174119 57 302 0.0 0.0 0.00 0.00 0.00 52 1020.2
20260508173619 57 302 0.0 0.0 0.00 0.00 0.00 52 1020.1
20260508173114 56 302 0.0 0.0 0.00 0.00 0.00 52 1020.1
20260508172615 57 302 0.0 0.0 0.00 0.00 0.00 53 1020.1
20260508171604 57 302 0.0 0.0 0.00 0.00 0.00 45 1020.0
20260508171104 57 302 0.0 0.0 0.00 0.00 0.00 46 1020.0
20260508170602 57 302 0.0 0.0 0.00 0.00 0.00 43 1020.0
20260508165601 57 302 0.0 0.0 0.00 0.00 0.00 43 1019.9
20260508165103 57 302 0.0 0.0 0.00 0.00 0.00 41 1019.9
20260508163602 56 302 0.0 0.0 0.00 0.00 0.00 35 1019.8
20260508163103 56 302 0.0 0.0 0.00 0.00 0.00 34 1019.6
20260508162047 55 302 0.0 0.0 0.00 0.00 0.00 36 1019.4
20260508161539 55 302 0.0 0.0 0.00 0.00 0.00 31 1019.5
20260508161038 55 302 0.0 0.0 0.00 0.00 0.00 22 1019.5
20260508155530 55 302 0.0 0.0 0.00 0.00 0.00 14 1019.6
20260508155030 55 302 0.0 0.0 0.00 0.00 0.00 6 1019.4
20260508154530 54 302 0.0 0.0 0.00 0.00 0.00 100 1019.4
20260508153530 54 302 0.0 0.0 0.00 0.00 0.00 100 1019.3
20260508153029 53 302 0.0 0.0 0.00 0.00 0.00 100 1019.2
20260508152030 52 302 0.0 0.0 0.00 0.00 0.00 100 1019.2
20260508151018 51 302 0.0 0.0 0.00 0.00 0.00 100 1019.1
20260508150015 51 302 0.0 0.0 0.00 0.00 0.00 100 1019.1
20260508145507 50 302 0.0 0.0 0.00 0.00 0.00 100 1019.2
20260508144504 50 302 0.0 0.0 0.00 0.00 0.00 100 1019.2
20260508144003 49 302 0.0 0.0 0.00 0.00 0.00 100 1019.3
20260508143504 49 302 0.0 0.0 0.00 0.00 0.00 100 1019.2
20260508142001 49 302 0.0 0.0 0.00 0.00 0.00 100 1019.3
20260508140502 49 302 0.0 0.0 0.00 0.00 0.00 100 1019.2
20260508140005 49 302 0.0 0.0 0.00 0.00 0.00 100 1019.1
20260508135003 48 302 0.0 0.0 0.00 0.00 0.00 100 1018.7
20260508134451 48 302 0.0 0.0 0.00 0.00 0.00 100 1018.6
20260508133931 48 302 0.0 0.0 0.00 0.00 0.00 100 1018.6
20260508132930 48 302 0.0 0.0 0.00 0.00 0.00 100 1018.3
20260508132430 48 302 0.0 0.0 0.00 0.00 0.00 100 1018.3
20260508131930 48 302 0.0 0.0 0.00 0.00 0.00 100 1018.3
20260508130926 48 302 0.0 0.0 0.00 0.00 0.00 100 1018.0
20260508130426 48 302 0.0 0.0 0.00 0.00 0.00 100 1017.9
20260508125911 48 302 0.0 0.0 0.00 0.00 0.00 100 1017.8
20260508125411 48 302 0.0 0.0 0.00 0.00 0.00 100 1017.6
20260508124911 48 302 0.0 0.0 0.00 0.00 0.00 100 1017.5
20260508124407 49 302 0.0 0.0 0.00 0.00 0.00 100 1017.5
20260508123403 49 302 0.0 0.0 0.00 0.00 0.00 100 1017.3
20260508122402 49 302 0.0 0.0 0.00 0.00 0.00 100 1017.3
20260508121901 49 302 0.0 0.0 0.00 0.00 0.00 100 1017.3
20260508121402 49 302 0.0 0.0 0.00 0.00 0.00 100 1017.0
20260508120402 49 302 0.0 0.0 0.00 0.00 0.00 100 1017.1
20260508114902 49 302 0.0 0.0 0.00 0.00 0.00 100 1017.0
20260508113402 49 302 0.0 0.0 0.00 0.00 0.00 100 1016.8
20260508112902 49 302 0.0 0.0 0.00 0.00 0.00 100 1016.7
20260508112404 49 302 0.0 0.0 0.00 0.00 0.00 100 1016.7
20260508111903 49 302 0.0 0.0 0.00 0.00 0.00 100 1016.6
20260508110903 49 302 0.0 0.0 0.00 0.00 0.00 100 1016.3
20260508110403 49 302 0.0 0.0 0.00 0.00 0.00 100 1016.3
20260508105904 49 302 0.0 0.0 0.00 0.00 0.00 100 1016.2
20260508105404 49 302 0.0 0.0 0.00 0.00 0.00 100 1016.1
20260508104903 49 302 0.0 0.0 0.00 0.00 0.00 100 1016.1
20260508103338 50 302 0.0 0.0 0.00 0.00 0.00 100 1016.0
20260508102330 50 302 0.0 0.0 0.00 0.00 0.00 100 1016.0
20260508101831 50 302 0.0 0.0 0.00 0.00 0.00 100 1015.9
20260508101332 50 302 0.0 0.0 0.00 0.00 0.00 100 1015.9
20260508100330 50 302 0.0 0.0 0.00 0.00 0.00 100 1015.8
20260508095832 50 302 0.0 0.0 0.00 0.00 0.00 100 1015.8
20260508094822 50 302 0.0 0.0 0.00 0.00 0.00 100 1015.8
20260508093817 50 302 0.0 0.0 0.00 0.00 0.00 100 1015.6
20260508093319 50 302 0.0 0.0 0.00 0.00 0.00 100 1015.5
20260508092819 50 302 0.0 0.0 0.00 0.00 0.00 100 1015.5
20260508092312 51 302 0.0 0.0 0.00 0.00 0.00 100 1015.4
20260508091302 51 302 0.0 0.0 0.00 0.00 0.00 100 1015.4
20260508090302 51 302 0.0 0.0 0.00 0.00 0.00 100 1015.4
20260508085801 51 302 0.0 0.0 0.00 0.00 0.00 100 1015.3
20260508085307 51 302 0.0 0.0 0.00 0.00 0.00 100 1015.3
20260508084803 51 302 0.0 0.0 0.00 0.00 0.00 100 1015.3
20260508084303 51 302 0.0 0.0 0.00 0.00 0.00 100 1015.2
20260508083803 52 302 0.0 0.0 0.00 0.00 0.00 100 1015.2
20260508083303 52 302 0.0 0.0 0.00 0.00 0.00 100 1015.2
20260508082806 52 302 0.0 0.0 0.00 0.00 0.00 100 1015.1
20260508081303 52 302 0.0 0.0 0.00 0.00 0.00 100 1015.1
20260508080806 53 302 0.0 0.0 0.00 0.00 0.00 100 1015.1
20260508080304 53 302 0.0 0.0 0.00 0.00 0.00 100 1015.1
20260508075802 53 302 0.0 0.0 0.00 0.00 0.00 3 1015.1
20260508074804 53 302 0.0 0.0 0.00 0.00 0.00 8 1015.0
20260508073303 54 302 0.0 0.0 0.00 0.00 0.00 13 1015.0
20260508072803 54 302 0.0 0.0 0.00 0.00 0.00 18 1014.9
20260508072307 55 302 0.0 0.0 0.00 0.00 0.00 22 1015.0
20260508071804 55 302 0.0 0.0 0.00 0.00 0.00 24 1014.9
20260508071303 55 302 0.0 0.0 0.00 0.00 0.00 28 1015.0
20260508070800 55 302 0.0 0.0 0.00 0.00 0.00 31 1015.0
20260508070303 55 302 0.0 0.0 0.00 0.00 0.00 33 1014.9
20260508065801 56 302 0.0 0.0 0.00 0.00 0.00 38 1014.9
20260508065306 56 302 0.0 0.0 0.00 0.00 0.00 39 1014.9
20260508064801 56 302 0.0 0.0 0.00 0.00 0.00 39 1014.9
20260508064302 56 302 0.0 0.0 0.00 0.00 0.00 39 1014.8
20260508063304 57 302 0.0 0.0 0.00 0.00 0.00 39 1014.9
20260508062803 57 302 0.0 0.0 0.00 0.00 0.00 38 1015.0
20260508062306 57 302 0.0 0.0 0.00 0.00 0.00 38 1014.9
20260508061803 58 302 0.0 0.0 0.00 0.00 0.00 38 1014.9
20260508061303 58 302 0.0 0.0 0.00 0.00 0.00 38 1014.9
20260508060803 58 302 0.0 0.0 0.00 0.00 0.00 38 1014.9
20260508060302 58 302 0.0 0.0 0.00 0.00 0.00 39 1014.9
20260508055305 58 302 0.0 0.0 0.00 0.00 0.00 42 1014.9
20260508054802 58 302 0.0 0.0 0.00 0.00 0.00 44 1014.9
20260508054302 59 302 0.0 0.0 0.00 0.00 0.00 44 1014.9
20260508053802 59 302 0.0 0.0 0.00 0.00 0.00 46 1014.9
20260508053303 59 302 0.0 0.0 0.00 0.00 0.00 46 1014.9
20260508052306 59 302 0.0 0.0 0.00 0.00 0.00 47 1014.9
20260508051803 59 302 0.0 0.0 0.00 0.00 0.00 47 1014.9
20260508051301 60 302 0.0 0.0 0.00 0.00 0.00 49 1014.8
20260508050801 60 302 0.0 0.0 0.00 0.00 0.00 51 1014.8
20260508050302 60 302 0.0 0.0 0.00 0.00 0.00 52 1014.7
20260508045802 60 302 0.0 0.0 0.00 0.00 0.00 53 1014.7
20260508045306 61 302 0.0 0.0 0.00 0.00 0.00 54 1014.7
20260508043802 62 302 0.0 0.0 0.00 0.00 0.00 57 1014.8
20260508042802 62 302 0.0 0.0 0.00 0.00 0.00 57 1014.8
20260508041803 63 302 0.0 0.0 0.00 0.00 0.00 56 1014.6
20260508041304 63 302 0.0 0.0 0.00 0.00 0.00 56 1014.5
20260508040802 64 302 0.0 0.0 0.00 0.00 0.00 56 1014.5
20260508040304 64 302 0.0 0.0 0.00 0.00 0.00 55 1014.3
20260508035802 64 302 0.0 0.0 0.00 0.00 0.00 55 1014.3
20260508035301 64 302 0.0 0.0 0.00 0.00 0.00 54 1014.3
20260508033802 65 302 0.0 0.0 0.00 0.00 0.00 53 1014.1
20260508033301 65 302 0.0 0.0 0.00 0.00 0.00 53 1014.1
20260508032803 66 302 0.0 0.0 0.00 0.00 0.00 53 1014.0
20260508032306 66 302 0.0 0.0 0.00 0.00 0.00 54 1014.1
20260508031803 67 302 0.0 0.0 0.00 0.00 0.00 54 1014.0
20260508031307 67 302 0.0 0.0 0.00 0.00 0.00 54 1014.0
20260508030803 67 302 0.0 0.0 0.00 0.00 0.00 53 1013.9
20260508030247 68 302 0.0 0.0 0.00 0.00 0.00 56 1013.8
20260508025230 69 302 0.0 0.0 0.00 0.00 0.00 55 1013.8
20260508024731 69 302 0.0 0.0 0.00 0.00 0.00 54 1013.8
20260508024231 69 302 0.0 0.0 0.00 0.00 0.00 54 1013.8
20260508023729 69 302 0.0 0.0 0.00 0.00 0.00 53 1013.9
20260508023230 69 302 0.0 0.0 0.00 0.00 0.00 53 1014.0
20260508022730 69 302 0.0 0.0 0.00 0.00 0.00 52 1014.0
20260508022231 69 302 0.0 0.0 0.00 0.00 0.00 52 1013.9
20260508021729 69 302 0.0 0.0 0.00 0.00 0.00 52 1013.9
20260508021229 69 302 0.0 0.0 0.00 0.00 0.00 52 1013.9
20260508020730 69 302 0.0 0.0 0.00 0.00 0.00 52 1014.0
20260508020231 70 302 0.0 0.0 0.00 0.00 0.00 52 1013.9
20260508015731 70 302 0.0 0.0 0.00 0.00 0.00 52 1013.9
20260508015230 70 302 0.0 0.0 0.00 0.00 0.00 53 1013.9
20260508014729 70 302 0.0 0.0 0.00 0.00 0.00 52 1014.0
20260508014228 70 302 0.0 0.0 0.00 0.00 0.00 52 1014.0
20260508013731 70 302 0.0 0.0 0.00 0.00 0.00 51 1014.1
20260508013231 70 302 0.0 0.0 0.00 0.00 0.00 52 1014.2
20260508012730 70 302 0.0 0.0 0.00 0.00 0.00 51 1014.2
20260508012230 71 302 0.0 0.0 0.00 0.00 0.00 50 1014.3
20260508011732 71 302 0.0 0.0 0.00 0.00 0.00 51 1014.3
20260508011234 71 302 0.0 0.0 0.00 0.00 0.00 51 1014.4
20260508010730 71 302 0.0 0.0 0.00 0.00 0.00 51 1014.4
20260508010230 71 302 0.0 0.0 0.00 0.00 0.00 50 1014.4
20260508005731 71 302 0.0 0.0 0.00 0.00 0.00 51 1014.5
20260508005230 71 302 0.0 0.0 0.00 0.00 0.00 51 1014.5
20260508004729 71 302 0.0 0.0 0.00 0.00 0.00 50 1014.5
20260508004228 71 302 0.0 0.0 0.00 0.00 0.00 51 1014.5
20260508003730 71 302 0.0 0.0 0.00 0.00 0.00 52 1014.5
20260508003230 70 302 0.0 0.0 0.00 0.00 0.00 50 1014.6
20260508002730 71 302 0.0 0.0 0.00 0.00 0.00 50 1014.7
20260508001729 71 302 0.0 0.0 0.00 0.00 0.00 51 1014.8
20260508001231 72 302 0.0 0.0 0.00 0.00 0.00 48 1014.8
20260508000732 72 302 0.0 0.0 0.00 0.00 0.00 49 1014.8
20260508000230 72 302 0.0 0.0 0.00 0.00 0.00 48 1014.8
20260507235230 73 302 0.0 0.0 0.00 0.00 0.00 48 1014.9
20260507234730 72 302 0.0 0.0 0.00 0.00 0.00 49 1015.0
20260507233231 71 302 0.0 0.0 0.00 0.00 0.00 50 1015.1
20260507232730 70 302 0.0 0.0 0.00 0.00 0.00 49 1015.1
20260507231218 70 302 0.0 0.0 0.00 0.00 0.00 49 1015.4
20260507230715 71 302 0.0 0.0 0.00 0.00 0.00 49 1015.6
20260507230210 70 302 0.0 0.0 0.00 0.00 0.00 49 1015.6
20260507225711 69 302 0.0 0.0 0.00 0.00 0.00 51 1015.7
20260507225211 70 302 0.0 0.0 0.00 0.00 0.00 49 1015.8
20260507224705 69 302 0.0 0.0 0.00 0.00 0.00 50 1015.9
20260507224202 69 302 0.0 0.0 0.00 0.00 0.00 50 1015.9
20260507223202 68 302 0.0 0.0 0.00 0.00 0.00 49 1016.1
20260507222701 68 302 0.0 0.0 0.00 0.00 0.00 48 1016.1
20260507222204 68 302 0.0 0.0 0.00 0.00 0.00 49 1016.2
20260507221703 68 302 0.0 0.0 0.00 0.00 0.00 51 1016.3
20260507221203 68 302 0.0 0.0 0.00 0.00 0.00 48 1016.4
20260507220703 68 302 0.0 0.0 0.00 0.00 0.00 51 1016.6
20260507220202 67 302 0.0 0.0 0.00 0.00 0.00 48 1016.7
20260507215703 67 302 0.0 0.0 0.00 0.00 0.00 51 1016.7
20260507215203 65 302 0.0 0.0 0.00 0.00 0.00 47 1016.8
20260507214702 66 302 0.0 0.0 0.00 0.00 0.00 48 1016.8
20260507214201 66 302 0.0 0.0 0.00 0.00 0.00 47 1016.8
20260507213702 66 302 0.0 0.0 0.00 0.00 0.00 51 1016.8
20260507213201 66 302 0.0 0.0 0.00 0.00 0.00 46 1016.9
20260507212702 66 302 0.0 0.0 0.00 0.00 0.00 47 1017.0
20260507212201 66 302 0.0 0.0 0.00 0.00 0.00 46 1017.0
20260507211704 66 302 0.0 0.0 0.00 0.00 0.00 46 1017.1
20260507211204 66 302 0.0 0.0 0.00 0.00 0.00 47 1017.1
20260507210703 66 302 0.0 0.0 0.00 0.00 0.00 49 1017.2
20260507210203 66 302 0.0 0.0 0.00 0.00 0.00 49 1017.2
20260507204703 66 302 0.0 0.0 0.00 0.00 0.00 53 1017.4
20260507204203 65 302 0.0 0.0 0.00 0.00 0.00 51 1017.5
20260507203703 65 302 0.0 0.0 0.00 0.00 0.00 55 1017.5
20260507202703 64 302 0.0 0.0 0.00 0.00 0.00 55 1017.6
20260507202203 64 302 0.0 0.0 0.00 0.00 0.00 52 1017.8
20260507201702 65 302 0.0 0.0 0.00 0.00 0.00 54 1017.8
20260507201204 64 302 0.0 0.0 0.00 0.00 0.00 52 1017.9
20260507200702 64 302 0.0 0.0 0.00 0.00 0.00 52 1018.0
20260507200203 64 302 0.0 0.0 0.00 0.00 0.00 52 1018.1
20260507195201 64 302 0.0 0.0 0.00 0.00 0.00 55 1018.2
20260507194701 63 302 0.0 0.0 0.00 0.00 0.00 56 1018.2
20260507194202 62 302 0.0 0.0 0.00 0.00 0.00 56 1018.2
20260507193702 63 302 0.0 0.0 0.00 0.00 0.00 55 1018.3
20260507193200 63 302 0.0 0.0 0.00 0.00 0.00 55 1018.3
20260507192204 64 302 0.0 0.0 0.00 0.00 0.00 53 1018.4
20260507191703 63 302 0.0 0.0 0.00 0.00 0.00 55 1018.5
20260507191202 63 302 0.0 0.0 0.00 0.00 0.00 56 1018.5
20260507190704 63 302 0.0 0.0 0.00 0.00 0.00 55 1018.5
20260507190204 63 302 0.0 0.0 0.00 0.00 0.00 55 1018.6
20260507185703 63 302 0.0 0.0 0.00 0.00 0.00 56 1018.6
20260507185203 63 302 0.0 0.0 0.00 0.00 0.00 56 1018.7
20260507183703 62 302 0.0 0.0 0.00 0.00 0.00 56 1018.8
20260507183203 61 302 0.0 0.0 0.00 0.00 0.00 54 1018.9